SCP
0 0 0 0 0 0 0 0 0 0 0 0 0 0 0 0 0 0 0 0 0 0 0 0 0 0 0 0 0 0 0 0 0 0 0 0 0 0 0 0 0 0 0
0 0 0 0 0 0 0 0 0 0 0 0 0 0 0 0 0 0 0 0 0 0 0 0 0 0 0 0 0 0 0 0 0 0 0 0 0 0 0 0 0 0 0
0 0 0 0 0 0 0 0 0 0 0 0 0 0 0 0 0 0 0 0 0 0 0 0 0 0 0 0 0 0 0 0 0 0 0 0 0 0 0 0 0 0 0
0 0 0 0 0 0 0 0 0 0 0 0 0 0 0 0 0 0 0 0 0 0 0 0 0 0 0 0 0 0 0 0 0 0 0 0 0 0 0 0 0 0 0
0 0 0 0 0 0 0 0 0 0 0 0 0 0 0 0 0 0 0 0 0 0 0 0 0 0 0 0 0 0 0 0 0 0 0 0 0 0 0 0 0 0 0
0 0 0 0 0 0 0 0 0 0 0 0 0 0 0 0 0 0 0 0 0 0 0 0 0 0 0 0 0 0 0 0 0 0 0 0 0 0 0 0 0 0 0
0 0 0 0 0 0 0 0 0 0 0 0 0 0 0 0 0 0 0 0 0 0 0 0 0 0 0 0 0 0 0 0 0 0 0 0 0 0 0 0 0 0 0
0 0 0 0 0 0 0 0 0 0 0 0 0 0 0 0 0 0 0 0 0 0 0 0 0 0 0 0 0 0 0 0 0 0 0 0 0 0 0 0 0 0 0
0 0 0 0 0 0 0 0 0 0 0 0 0 0 0 0 0 0 0 0 0 0 0 0 0 0 0 0 0 0 0 0 0 0 0 0 0 0 0 0 0 0 0
0 0 0 0 0 0 0 0 0 0 0 0 0 0 0 0 0 0 0 0 0 0 0 0 0 0 0 0 0 0 0 0 0 0 0 0 0 0 0 0 0 0 0
0 0 0 0 0 0 0 0 0 0 0 0 0 0 0 0 0 0 0 0 0 0 0 0 0 0 0 0 0 0 0 0 0 0 0 0 0 0 0 0 0 0 0
0 0 0 0 0 0 0 0 0 0 0 0 0 0 0 0 0 0 0 0 0 0 0 0 0 0 0 0 0 0 0 0 0 0 0 0 0 0 0 0 0 0 0
0 0 0 0 0 0 0 0 0 0 0 0 0 0 0 0 0 0 0 0 0 0 0 0 0 0 0 0 0 0 0 0 0 0 0 0 0 0 0 0 0 0 0
0 0 0 0 0 0 0 0 0 0 0 0 0 0 0 0 0 0 0 0 0 0 0 0 0 0 0 0 0 0 0 0 0 0 0 0 0 0 0 0 0 0 0
0 0 0 0 0 0 0 0 0 0 0 0 0 0 0 0 0 0 0 0 0 0 0 0 0 0 0 0 0 0 0 0 0 0 0 0 0 0 0 0 0 0 0
0 0 0 0 0 0 0 0 0 0 0 0 0 0 0 0 0 0 0 0 0 0 0 0 0 0 0 0 0 0 0 0 0 0 0 0 0 0 0 0 0 0 0
0 0 0 0 0 0 0 0 0 0 0 0 0 0 0 0 0 0 0 0 0 0 0 0 0 0 0 0 0 0 0 0 0 0 0 0 0 0 0 0 0 0 0
0 0 0 0 0 0 0 0 0 0 0 0 0 0 0 0 0 0 0 0 0 0 0 0 0 0 0 0 0 0 0 0 0 0 0 0 0 0 0 0 0 0 0
0 0 0 0 0 0 0 0 0 0 0 0 0 0 0 0 0 0 0 0 0 0 0 0 0 0 0 0 0 0 0 0 0 0 0 0 0 0 0 0 0 0 0
0 0 0 0 0 0 0 0 0 0 0 0 0 0 0 0 0 0 0 0 0 0 0 0 0 0 0 0 0 0 0 0 0 0 0 0 0 0 0 0 0 0 0
0 0 0 0 0 0 0 0 0 0 0 0 0 0 0 0 0 0 0 0 0 0 0 0 0 0 0 0 0 0 0 0 0 0 0 0 0 0 0 0 0 0 0
0 0 0 0 0 0 0 0 0 0 0 0 0 0 0 0 0 0 0 0 0 0 0 0 0 0 0 0 0 0 0 0 0 0 0 0 0 0 0 0 0 0 0
0 0 0 0 0 0 0 0 0 0 0 0 0 0 0 0 0 0 0 0 0 0 0 0 0 0 0 0 0 0 0 0 0 0 0 0 0 0 0 0 0 0 0
0 0 0 0 0 0 0 0 0 0 0 0 0 0 0 0 0 0 0 0 0 0 0 0 0 0 0 0 0 0 0 0 0 0 0 0 0 0 0 0 0 0 0
0 0 0 0 0 0 0 0 0 0 0 0 0 0 0 0 0 0 0 0 0 0 0 0 0 0 0 0 0 0 0 0 0 0 0 0 0 0 0 0 0 0 0
0 0 0 0 0 0 0 0 0 0 0 0 0 0 0 0 0 0 0 0 0 0 0 0 0 0 0 0 0 0 0 0 0 0 0 0 0 0 0 0 0 0 0
Wind_Speed
2 2 2 2 2 2 2 2 2 3 3 3 3 4 4 3 3 3 2 7 8 8 8 8 9 9 8 8 8 9 9 8 8 7 8 8 9 9 8 9 8 8 8
3 3 2 2 1 1 1 2 2 2 2 2 3 3 3 3 3 3 2 4 7 8 9 9 9 9 9 9 9 9 9 8 8 8 8 8 8 9 9 9 9 9 9
4 3 2 2 1 1 2 2 3 2 3 3 3 3 2 3 3 3 2 2 3 6 8 9 9 9 9 9 9 9 8 8 8 8 8 8 8 8 8 9 9 9 9
4 3 2 2 1 2 2 2 2 2 2 2 2 2 2 2 2 2 2 2 2 2 5 8 9 9 10 9 9 8 8 8 8 8 8 8 8 8 8 9 9 9 9
4 3 2 1 2 2 2 2 2 2 2 2 1 1 1 1 1 2 2 2 2 2 2 5 7 8 9 9 9 9 8 8 8 8 8 8 8 9 9 9 9 9 9
3 3 2 2 2 2 2 2 2 2 1 1 1 2 2 1 1 1 1 2 2 2 2 2 3 4 7 8 9 9 9 9 8 8 9 9 9 9 9 9 10 9 10
3 3 2 2 2 2 2 2 2 2 2 1 2 2 3 2 2 1 1 1 2 2 2 2 2 2 3 7 8 9 9 9 9 9 9 9 9 9 10 9 10 10 10
2 2 2 2 2 2 2 2 2 1 1 2 2 2 2 3 3 2 1 1 1 1 2 2 1 1 1 2 5 8 9 9 10 9 9 9 9 10 10 10 10 10 10
2 2 3 2 2 2 2 1 1 2 1 1 1 2 2 1 2 2 2 1 1 1 1 1 1 1 1 1 2 5 7 8 9 9 10 10 10 10 10 10 10 10 10
2 2 3 3 3 2 2 1 1 1 2 1 0 1 1 2 1 2 3 2 2 2 2 2 2 2 2 1 3 6 7 8 9 9 10 10 10 10 11 11 10 10 10
1 2 2 3 3 2 2 1 1 1 2 2 1 1 1 1 1 2 3 3 3 2 2 2 2 2 2 2 2 4 8 9 9 10 10 10 10 11 11 11 11 11 11
1 1 2 2 2 2 2 2 1 1 1 2 2 2 2 2 2 2 2 3 3 3 2 2 2 2 2 2 3 6 7 9 10 10 10 10 10 11 12 12 12 12 12
1 2 2 2 2 2 2 2 2 1 2 2 2 2 2 2 2 2 2 2 3 3 2 2 2 2 2 2 3 6 7 9 10 11 11 11 11 11 11 12 12 12 13
2 2 2 2 2 2 2 2 1 1 1 2 2 2 2 2 2 2 3 2 2 3 2 4 2 2 2 2 4 7 5 9 10 11 11 11 11 11 11 11 12 12 12
2 2 2 2 2 2 2 2 1 2 1 2 2 2 2 2 2 2 2 3 3 3 4 3 2 2 2 2 6 4 4 8 11 11 11 11 11 11 11 11 12 12 12
1 2 1 2 2 2 2 2 1 2 2 2 2 2 2 2 2 2 2 2 3 4 5 3 3 3 3 4 7 4 4 11 11 12 12 12 11 11 11 12 12 12 12
2 2 2 2 2 2 2 2 2 2 2 2 2 3 3 3 2 2 2 2 3 3 6 5 3 3 3 5 5 4 4 5 5 12 13 12 12 12 12 12 12 12 12
2 2 2 2 2 2 2 3 3 3 3 3 3 3 4 3 3 3 3 3 4 4 5 8 5 3 4 5 5 5 5 4 4 10 13 13 13 12 13 13 13 12 12
2 2 2 2 3 3 3 3 3 3 4 4 4 4 4 4 4 4 4 4 4 4 4 5 6 4 3 3 4 5 5 4 5 7 11 12 12 13 13 13 13 12 12
3 3 3 3 3 3 3 3 3 4 4 4 4 5 5 5 6 5 4 5 4 4 4 5 6 5 4 4 3 4 5 3 5 5 8 9 11 13 13 14 13 12 12
3 3 3 3 2 2 3 3 3 4 4 4 4 5 5 7 9 7 5 5 4 4 4 5 6 5 5 4 4 3 5 5 5 4 4 4 5 5 6 10 12 12 12
3 2 3 3 3 3 6 7 5 4 4 5 5 5 5 7 9 12 13 12 9 7 6 6 6 7 8 6 5 4 4 5 5 2 3 5 3 5 5 5 11 14 13
2 3 3 3 4 5 8 8 8 4 4 5 5 5 5 6 8 6 9 13 12 14 14 8 8 9 8 6 5 6 6 6 7 3 2 5 3 5 5 7 13 13 13
3 3 3 4 4 6 8 9 9 5 4 5 5 6 6 6 6 7 6 6 7 8 10 8 8 9 8 7 7 7 7 7 6 4 4 5 4 4 5 4 11 13 13
3 3 3 4 4 6 8 9 8 3 3 5 5 5 6 6 11 13 8 7 8 8 11 14 15 14 15 15 10 5 4 5 7 5 3 4 3 3 3 4 6 10 11
3 3 4 4 4 5 9 10 8 3 4 4 4 5 9 10 12 14 7 6 8 9 7 7 9 10 9 10 13 7 5 5 6 5 3 3 3 2 4 3 3 3 4
Wind_Direction
115 104 89 80 73 65 65 51 51 53 51 50 56 64 61 59 54 46 28 39 39 37 39 40 42 44 45 43 41 40 42 40 37 34 31 25 20 13 8 4 356 349 344
122 112 96 80 75 74 76 76 71 70 62 59 55 57 63 62 59 50 37 32 39 40 40 40 41 40 41 42 41 42 40 36 32 29 26 21 13 6 1 359 356 353 348
121 118 106 92 77 72 72 68 61 62 61 56 51 51 64 62 62 53 45 37 28 35 39 39 37 35 34 35 37 37 37 35 31 29 25 21 13 5 359 354 351 349 346
123 116 111 106 93 78 75 79 69 64 53 48 34 25 42 54 57 56 54 52 42 34 31 39 35 32 27 24 24 24 25 26 22 18 15 13 8 1 356 351 347 345 343
120 117 112 104 98 84 76 81 74 81 65 38 23 32 28 36 40 58 59 58 56 53 37 36 36 31 25 18 14 12 13 14 12 5 3 2 1 355 352 351 351 348 345
111 119 118 102 96 89 70 77 84 69 81 49 33 29 6 7 32 56 66 55 49 53 48 40 25 18 20 15 10 7 5 3 1 356 355 354 354 353 350 348 348 346 346
115 112 120 110 100 98 92 93 99 74 42 34 55 21 2 11 30 30 38 50 40 38 44 37 27 17 1 5 3 2 359 356 354 352 349 349 348 347 345 344 343 341 339
128 120 115 117 110 102 84 75 95 97 41 39 87 80 9 350 355 9 357 28 31 21 24 22 16 11 358 348 345 351 350 348 346 345 346 346 344 342 342 340 341 341 341
137 130 124 117 113 118 125 119 125 130 133 16 79 129 136 238 308 323 332 348 349 350 330 321 328 327 331 332 322 332 338 339 338 340 339 339 337 336 335 335 337 337 336
139 141 136 134 130 125 137 154 129 142 144 153 25 58 151 163 168 308 317 322 321 301 296 305 305 298 296 300 308 318 323 327 329 331 330 330 331 330 330 330 331 331 329
147 155 147 139 138 141 153 151 130 141 154 163 167 153 87 77 152 180 273 305 319 298 287 281 277 279 283 286 291 310 319 321 322 323 324 325 326 327 328 327 326 326 326
168 170 144 143 150 156 168 175 171 166 173 168 169 173 175 184 193 188 233 268 285 286 286 275 265 263 270 280 293 315 319 318 317 316 316 318 321 324 325 324 323 324 324
196 203 165 161 162 173 178 170 172 190 193 184 188 197 200 210 197 192 216 258 279 287 288 283 261 261 270 273 289 308 310 313 314 312 310 312 316 319 320 319 318 319 319
204 195 180 177 175 168 176 171 182 205 197 203 211 208 212 229 209 200 198 216 285 292 278 270 281 253 262 276 288 299 300 305 307 307 307 309 312 312 311 311 312 313 315
195 182 176 179 186 174 179 175 200 222 212 215 220 221 227 237 225 222 210 197 207 267 279 260 265 265 264 270 284 285 277 291 298 299 301 303 303 303 302 303 305 307 309
188 175 183 196 211 199 188 183 206 224 223 237 221 227 241 245 244 235 225 223 212 227 261 256 248 261 275 282 284 279 270 288 292 293 294 296 296 296 297 297 299 301 303
191 195 199 200 210 217 205 198 220 224 229 245 243 234 245 244 244 245 235 231 231 223 257 274 254 258 261 270 283 278 270 269 277 286 290 292 293 293 295 294 294 295 297
203 201 199 204 217 222 215 210 225 229 228 239 246 244 251 251 247 246 237 239 241 230 241 272 279 268 257 258 264 271 277 272 264 280 286 287 288 291 292 291 290 291 293
207 209 203 213 225 229 228 228 227 233 234 237 238 240 249 246 255 253 246 246 249 251 238 257 275 271 266 264 271 273 269 269 271 278 284 285 288 291 291 290 290 290 293
205 215 219 224 228 232 235 237 236 239 242 243 241 240 243 239 246 251 253 249 249 252 248 254 270 275 269 263 258 270 281 268 271 275 278 280 284 288 290 289 289 289 289
213 215 218 231 235 234 235 238 237 238 242 249 251 247 246 251 255 259 260 251 244 250 255 260 268 275 273 266 260 256 271 281 270 256 266 270 276 277 282 284 287 286 284
214 211 220 230 242 250 270 269 266 246 245 246 255 258 259 263 268 274 276 272 260 254 254 256 262 263 268 261 261 257 266 280 282 248 246 269 252 263 266 261 277 281 278
212 222 232 234 244 258 274 276 273 265 245 245 249 256 267 266 277 266 274 279 276 272 268 261 258 259 262 256 255 261 255 255 260 250 246 272 256 262 264 272 278 277 277
215 224 233 237 244 260 275 280 279 265 247 248 247 247 255 264 265 270 264 267 266 267 269 267 255 257 254 250 242 251 257 262 262 248 221 262 262 260 272 270 277 276 277
227 230 235 236 244 265 278 282 282 255 251 257 254 250 254 259 273 280 277 271 277 275 277 273 269 269 268 270 267 261 254 264 274 263 212 237 258 268 269 264 272 280 284
229 237 248 244 243 256 275 282 282 249 255 266 266 259 266 272 276 281 273 264 273 278 274 276 275 275 272 269 269 255 239 252 267 268 218 216 244 268 285 264 258 277 286